Location: Newark
(25.6108°S, 54.5803°W)
Time: 16:33:18
(UTC+00:00)

Courier 1B Rocket - Pass Details

Date: 30 October 2020
Orbit: 920 x 1202 km, 28.2° (Epoch: 22 November)

Event Time Altitude Azimuth Distance (km) Brightness Sun altitude
Rises 11:16:16 0° 266° (W) 3,888 7.6 31.5°
Reaches altitude 10° 11:19:07 10° 263° (W) 2,889 7.0 32.2°
Maximum altitude 11:26:08 71° 179° (S) 1,064 5.8 33.8°
Drops below altitude 10° 11:32:39 10° 95° (E) 2,695 8.7 35.2°
Sets 11:35:14 0° 93° (E) 3,612 9.0 35.8°
